Погода в Ванг-Виенге

Лаос     18°55′00″N   102°25′46″E
темп.,
°C
ветер,
м/с
пор.,
м/с
влажн.,
%
обл.,
%
осадки,
мм/ч
давл.,
гПа
погр.,
м
10 августа, ср
ср1001:00+19ссв119912 0.0 100517
04:00+19ссв119952 0.0 100519
07:00+20св019710 0.0 100646
10:00+28юз11617 0.0 1005937
13:00+31ююз2250100 0.1 10021844
16:00+26ююв128091 0.6 1001311
19:00+22ююз0098100 3.9 100311
22:00+21всв11100100 6.4 100628
11 августа, чт
чт1101:00+20св11100100 15.4 100433
04:00+20ссв1199100 2.3 100318
07:00+20св1199100 6.3 100441
10:00+21ююз00100100 2.8 100598
13:00+21ссв0099100 3.1 100488
16:00+21всв0099100 1.4 100395
19:00+21всв00100100 2.8 100424
22:00+20в11100100 3.1 100527
12 августа, пт
пт1201:00+20юв12100100 8.3 100499
04:00+20ююв13100100 6.9 1004202
07:00+21ююв14100100 10.9 1005278
10:00+21ю13100100 9.3 1007275
13:00+21ю13100100 13.3 1006184
16:00+21ююв1199100 2.7 1005223
19:00+21ююв01100100 3.3 100747
22:00+20в1199100 0.6 100932
13 августа, сб
сб1301:00+20ю11100100 1.7 100873
04:00+20вюв0099100 1.2 100719
07:00+20в009994 1.6 100925
10:00+22ююз119986 0.6 101093
13:00+24ююз129046 2.9 1007624
16:00+23ююз1297100 2.5 1006366
19:00+21ююв1199100 4.4 100818
22:00+21св1199100 0.1 101015
14 августа, вс
вс1401:00+20св1199100 0.1 100915
04:00+20ссв119993 0.0 100819
07:00+20ссв009899 0.0 100930
10:00+23ссз0087100 0.0 1009410
13:00+28ююз126361 0.1 10071099
16:00+27ююз127296 0.8 1005828
19:00+23в0095100 1.6 100711
22:00+22св119868 0.3 100813